Theta_e
315 310 309 306 296 295 292 295 308 307 310 319 321 317 314 316 313 308 337 340 343 344 346 347 347 350 350 350 350 350 351 349 349 347 346 345 344 343 342 342 342 343 343 344 344 343 341 340 338
313 311 308 301 293 289 293 303 308 312 317 319 319 319 318 316 327 330 331 340 343 344 345 345 346 348 349 349 349 348 349 348 348 346 345 344 343 342 342 341 343 343 342 341 341 340 338 337 337
312 312 300 295 292 288 296 303 306 312 316 315 314 318 317 319 329 330 336 339 340 339 342 343 343 345 347 347 347 348 348 347 347 346 345 345 343 342 341 340 342 341 340 340 338 337 335 335 334
309 304 299 292 290 295 303 305 312 314 315 318 316 312 318 324 324 334 337 336 333 331 334 338 340 343 345 345 346 346 346 345 345 345 345 343 341 340 339 339 340 339 338 337 336 336 336 334 334
308 300 293 291 294 304 306 308 314 313 314 314 316 311 313 326 334 334 332 331 328 326 331 334 338 340 342 342 342 343 343 342 343 343 343 341 340 339 339 338 337 336 335 335 335 334 333 332 332
299 298 291 289 298 304 305 308 315 314 314 314 313 313 312 327 327 327 328 324 327 327 330 334 338 339 340 340 340 339 340 340 340 341 341 340 339 338 337 336 335 334 333 332 331 330 330 330 331
297 294 291 291 294 301 304 306 310 315 315 314 316 310 312 314 322 323 322 322 324 327 328 330 333 335 336 335 335 335 336 337 337 337 337 337 336 336 337 335 334 333 332 330 329 329 329 329 329
300 296 291 292 297 297 302 303 305 308 307 320 319 309 307 312 319 320 321 319 321 323 327 326 328 329 328 329 333 333 333 333 334 334 334 333 334 334 335 334 334 333 331 330 329 329 328 328 327
302 293 288 292 295 299 299 301 302 305 309 310 313 314 315 315 317 316 315 315 318 322 323 325 326 326 327 328 331 333 333 333 332 332 332 329 329 330 332 330 331 332 331 330 330 329 328 326 326
297 291 292 296 299 296 298 299 300 306 311 311 313 317 317 315 315 314 314 315 317 320 323 324 324 325 326 330 329 328 330 329 328 328 328 327 326 326 330 329 330 331 330 330 330 329 329 326 319
295 292 295 298 298 299 298 298 301 304 305 313 312 313 315 313 312 314 315 317 319 322 325 324 326 326 324 325 325 325 327 327 327 328 327 325 326 326 325 322 324 322 326 322 323 322 321 320 318
293 296 298 297 297 297 297 297 298 298 306 317 317 317 315 312 313 314 314 316 319 322 324 324 323 325 323 322 324 325 325 327 327 327 324 321 321 317 318 321 319 318 317 319 318 318 317 316 317
295 296 298 299 300 297 298 297 298 298 310 318 318 317 315 315 315 316 316 318 321 322 324 324 324 323 322 321 320 321 322 325 326 323 322 321 318 316 316 316 315 314 314 313 312 312 312 312 313
298 297 297 297 297 299 298 297 298 297 311 315 316 315 315 316 316 316 314 316 320 324 325 326 325 325 326 322 321 321 323 321 322 321 320 321 319 317 317 314 315 314 314 314 313 312 312 313 313
298 294 296 295 297 295 298 295 295 300 313 314 314 315 315 316 317 317 316 316 320 324 329 328 330 330 328 327 323 319 321 320 320 319 319 320 318 316 314 313 313 313 314 313 312 311 312 311 313
297 295 291 296 298 299 297 291 297 298 306 310 312 313 314 313 313 313 314 315 321 327 330 330 329 327 324 326 324 320 316 314 315 316 316 317 317 315 313 311 311 312 311 310 309 309 308 307 307
293 288 291 294 299 297 296 293 298 298 300 300 299 303 308 310 313 315 316 317 318 322 327 325 325 323 321 324 321 317 315 313 313 313 314 314 316 315 311 309 308 308 307 306 307 305 305 304 304
290 289 293 292 295 295 292 292 297 298 298 298 303 306 308 308 309 312 312 315 316 317 320 320 321 321 323 318 315 312 311 310 311 311 310 311 310 310 308 308 307 306 305 305 303 302 302 302 302
295 292 292 292 296 294 292 293 296 298 302 303 304 305 306 307 309 311 311 311 311 311 312 313 313 311 310 309 309 308 307 308 309 309 310 309 309 309 306 305 304 304 303 302 302 301 300 300 301
297 294 292 295 299 295 292 293 296 299 301 304 304 304 305 306 307 309 309 308 309 310 309 309 309 308 308 308 307 307 306 308 307 307 307 306 305 305 303 301 301 301 302 301 300 299 299 299 298
296 294 293 293 295 295 294 292 296 299 301 303 304 306 307 306 306 307 308 308 307 306 307 308 308 308 307 308 307 307 306 305 304 304 303 303 303 302 302 301 300 299 300 299 299 298 297 295 295
293 299 297 295 291 286 292 283 290 295 297 300 302 302 304 306 307 307 306 306 306 305 306 307 307 308 308 308 307 305 303 302 302 302 301 301 301 301 301 300 299 298 299 299 298 298 295 297 295
296 299 297 296 291 289 290 286 288 297 295 297 298 301 303 304 306 305 306 307 307 307 305 306 308 308 308 308 306 305 303 303 302 301 299 299 299 300 299 300 299 299 299 298 297 296 296 295 293
300 298 297 295 292 283 292 289 287 291 295 298 301 301 302 302 303 305 306 307 306 306 305 305 306 306 307 306 305 303 302 301 299 298 296 297 297 297 297 299 298 298 297 297 296 295 294 293 292
297 293 283 283 281 282 295 291 291 297 301 302 300 300 301 301 302 304 305 305 305 304 304 306 306 305 306 305 303 302 301 299 299 298 295 295 294 294 295 297 296 297 296 295 295 294 293 292 292
294 293 282 280 279 282 292 287 290 300 303 303 303 302 302 301 302 302 302 302 303 303 303 304 304 304 304 303 301 300 301 299 297 296 295 294 293 294 294 296 295 295 295 294 293 293 293 293 291
294 289 294 287 283 280 286 290 296 299 301 303 302 305 303 302 301 301 302 302 302 303 303 301 301 302 301 300 298 297 298 297 295 295 295 294 294 296 294 294 294 294 294 294 293 291 291 291 290
295 297 288 285 279 279 284 287 290 295 297 300 299 299 300 300 300 301 301 302 302 302 301 300 300 298 297 297 296 296 296 296 295 294 294 294 294 294 294 293 294 294 294 293 292 290 290 289 289
292 291 291 290 284 279 277 282 293 296 299 298 298 300 299 300 300 300 299 300 299 300 299 298 298 297 296 295 295 295 295 295 294 293 293 293 293 293 294 293 293 293 292 292 290 290 290 288 286
294 293 292 282 283 281 280 282 296 297 297 298 299 299 299 298 298 298 298 298 298 297 297 298 297 296 295 295 295 294 295 294 293 292 292 292 292 293 293 291 288 288 288 288 287 287 285 283 282
Wind_Speed
3 4 1 3 3 4 4 5 7 4 6 7 8 13 10 5 2 7 6 10 12 11 9 10 12 14 14 13 13 14 14 15 15 14 13 12 13 12 11 11 10 9 10 10 10 10 9 9 8
2 1 3 1 4 1 5 3 11 10 14 16 15 12 13 7 7 13 7 9 11 11 8 9 12 13 14 14 14 14 15 15 13 13 13 13 12 11 10 10 9 10 11 9 10 9 8 8 6
3 0 4 3 2 5 6 5 15 9 9 6 7 6 6 10 11 7 11 12 10 10 8 9 12 13 14 14 14 13 13 13 12 12 13 12 11 11 10 11 10 11 10 10 11 10 10 9 8
2 4 4 3 8 7 8 5 18 17 9 12 12 8 6 4 6 11 15 13 12 7 7 9 12 13 14 14 14 13 13 12 11 12 11 11 11 11 10 10 10 9 9 7 8 7 8 7 7
4 3 3 2 6 3 4 3 16 11 7 8 10 4 6 6 19 18 15 13 15 7 6 7 11 13 13 14 13 12 12 11 11 11 10 11 11 11 11 10 9 7 7 5 5 5 5 6 7
4 2 3 1 6 5 6 2 18 18 19 15 16 10 6 14 16 13 14 12 12 10 6 7 11 12 12 13 12 12 11 11 10 10 11 11 11 11 9 8 7 5 4 3 3 3 4 5 7
4 3 4 5 7 11 6 4 9 15 10 5 9 11 6 8 14 13 13 12 10 8 7 6 6 9 12 11 11 11 10 11 11 10 10 10 9 9 9 7 6 5 3 2 1 2 4 5 7
4 4 2 3 3 7 5 4 8 7 3 10 15 7 12 9 13 14 12 12 9 7 7 7 6 6 6 7 11 10 10 10 10 10 10 10 9 7 7 7 6 6 4 4 4 4 5 5 6
4 3 3 7 3 14 6 10 5 4 9 1 2 7 15 15 14 11 7 5 5 5 6 6 6 6 5 4 6 8 8 8 8 7 7 5 4 5 6 5 7 6 5 6 7 7 6 7 7
5 3 5 5 8 6 6 10 7 8 7 6 11 12 13 18 15 13 10 10 12 11 10 8 8 7 7 6 5 6 4 4 4 4 5 4 5 4 4 5 9 7 7 9 9 8 8 7 4
5 5 1 6 3 8 7 5 4 10 4 17 22 16 12 13 10 13 14 16 16 15 9 10 9 7 7 5 4 1 1 1 2 4 4 4 3 4 3 3 3 3 6 4 4 4 3 5 4
6 1 6 2 1 4 9 7 5 6 8 19 22 19 10 12 12 14 14 10 10 13 12 11 10 8 7 4 4 4 4 3 4 5 5 4 3 3 3 3 2 3 2 4 4 3 5 5 6
9 3 6 6 6 3 4 6 3 4 11 14 15 16 17 17 16 14 15 10 10 13 14 11 10 7 7 7 5 4 5 5 4 5 4 4 3 3 2 0 1 2 2 1 2 3 4 5 6
6 7 7 4 2 3 5 3 5 2 15 15 18 17 17 17 18 13 9 12 12 13 10 6 6 7 5 4 4 5 4 4 4 3 5 6 4 3 2 1 1 3 3 3 3 3 4 5 5
8 7 5 1 3 2 5 3 5 6 17 19 19 18 16 17 14 15 13 11 15 12 12 12 10 6 6 3 4 2 4 4 4 4 5 6 4 4 4 2 1 2 3 5 5 5 5 5 6
5 6 3 4 4 1 6 6 5 7 16 18 17 14 14 2 5 8 7 5 11 14 12 11 9 7 4 0 4 2 1 2 2 2 0 0 1 2 3 2 3 4 4 3 4 4 4 4 4
5 4 5 2 8 3 3 5 6 8 10 11 5 9 9 11 14 13 13 10 10 9 11 7 4 4 2 5 4 2 4 4 3 4 4 4 5 6 5 4 3 3 3 4 3 2 2 3 5
5 4 4 6 4 3 4 2 6 4 7 8 13 12 14 17 12 12 15 15 16 15 13 11 7 7 3 5 2 3 4 5 6 6 6 7 5 7 6 5 6 5 4 4 4 3 3 2 4
2 3 9 1 1 3 5 5 4 6 13 14 14 16 14 15 7 12 13 12 14 13 13 9 7 3 4 4 3 3 5 4 5 5 7 7 7 7 7 5 6 6 5 4 3 2 4 4 6
5 8 4 5 6 5 4 6 7 5 8 15 17 14 14 11 12 12 10 9 9 8 7 7 6 6 5 3 2 3 3 3 4 4 7 7 8 7 6 6 6 6 4 6 4 3 2 2 4
6 5 2 3 3 4 10 5 7 6 11 9 8 11 12 14 11 9 9 7 7 7 6 7 7 8 6 5 3 3 3 3 3 4 3 3 5 5 5 4 3 4 3 3 2 2 2 1 2
2 1 2 3 4 2 3 3 1 4 9 8 9 8 10 11 9 8 8 7 7 4 7 7 6 6 4 5 4 4 3 2 1 2 2 2 4 4 4 3 4 4 3 4 2 2 1 0 1
4 1 0 1 3 3 3 7 3 7 9 8 6 9 8 9 11 9 8 8 5 5 6 5 6 5 5 6 5 4 3 2 3 3 4 5 5 6 6 6 6 6 4 4 4 3 3 2 2
2 3 7 5 4 4 5 6 5 5 8 6 5 7 8 7 7 7 6 6 4 2 4 4 7 5 7 7 7 7 7 6 4 3 3 2 2 3 5 6 4 3 3 3 3 3 4 4 3
8 6 4 5 5 5 5 5 1 4 9 12 9 6 7 7 7 7 7 5 3 2 1 3 7 6 6 7 7 7 7 6 5 2 1 3 3 3 4 4 4 2 2 3 3 2 3 4 3
2 5 6 3 2 4 6 3 4 6 13 11 9 7 6 6 5 4 2 4 4 4 4 5 7 6 6 6 6 5 6 3 2 2 2 2 1 1 1 2 2 1 1 2 2 2 2 4 4
3 4 5 7 3 4 1 3 4 3 9 8 7 7 8 3 6 8 7 7 5 4 3 4 6 6 6 6 5 4 3 3 4 5 4 3 2 2 2 1 3 2 1 1 2 2 5 4 4
5 3 4 5 2 0 3 4 5 7 6 8 7 7 6 6 7 7 5 5 5 5 3 3 6 7 5 4 3 3 4 6 6 6 6 5 3 2 1 4 5 3 4 4 4 4 5 4 4
5 3 5 5 4 5 2 6 4 7 7 9 7 7 7 6 6 7 6 5 6 4 5 4 5 5 3 3 3 4 6 6 6 6 6 6 5 5 2 4 4 5 5 5 5 6 5 4 3
2 3 5 6 2 1 4 6 3 8 9 8 4 8 6 8 8 6 5 4 5 5 5 3 2 3 2 4 6 6 6 6 7 7 7 6 6 3 4 3 3 1 2 3 4 3 3 3 3
Wind_Direction
327 308 144 49 67 74 283 262 164 145 62 47 88 101 110 45 94 133 93 126 129 117 121 110 106 107 107 103 99 95 99 104 110 108 105 99 93 86 82 76 69 66 60 59 61 52 43 43 40
59 316 48 59 82 71 286 91 93 104 128 112 81 82 56 65 52 102 102 136 119 114 110 106 106 106 107 104 101 102 106 107 110 113 108 100 94 88 81 77 71 66 58 58 56 50 43 39 26
118 330 88 106 181 185 184 188 128 120 163 132 104 56 70 113 122 132 131 131 114 99 106 114 108 105 104 102 99 101 107 114 114 110 108 106 100 93 84 72 64 62 52 41 42 37 35 29 23
94 10 25 80 250 241 184 184 114 109 92 86 129 62 60 112 125 128 128 122 100 96 100 110 111 111 109 106 110 112 108 105 104 104 106 102 100 94 90 83 74 71 62 51 48 39 38 24 16
33 56 50 316 294 29 5 119 115 99 102 92 105 114 79 44 110 120 128 125 117 109 112 119 118 114 114 117 113 105 104 104 108 110 113 111 109 106 101 98 97 96 93 80 63 39 26 11 356
36 78 62 151 319 332 27 72 99 96 108 107 92 102 84 128 119 134 129 122 124 132 140 132 125 120 122 122 120 120 120 123 122 126 127 126 124 125 124 122 117 114 115 103 70 26 354 348 341
126 106 206 196 200 89 359 44 108 122 119 64 141 114 131 134 134 135 130 127 135 143 143 131 136 140 135 129 124 127 139 142 142 140 137 135 139 145 145 144 143 161 166 122 264 294 320 333 328
135 109 254 275 165 59 178 71 114 115 89 118 133 154 156 158 143 130 134 140 147 155 142 155 159 148 137 136 143 156 164 152 154 154 155 147 155 161 168 163 176 195 195 218 249 270 287 306 310
163 27 233 200 194 157 225 98 21 97 119 91 166 111 143 142 132 122 121 112 123 154 166 163 151 151 135 139 175 168 177 159 164 167 152 162 185 184 187 196 209 211 214 240 256 266 279 290 294
112 168 236 216 160 159 131 124 145 100 103 53 81 106 130 137 144 141 153 168 173 172 184 168 166 166 160 172 170 167 191 180 177 187 181 190 212 201 197 225 232 234 229 247 259 272 285 294 280
171 169 267 16 78 136 120 102 101 117 73 140 139 149 146 145 146 157 179 181 181 175 173 183 165 180 168 162 166 175 151 253 225 211 214 205 212 212 220 235 252 259 260 269 292 294 277 279 275
106 254 105 53 69 111 141 153 100 161 182 154 151 155 142 156 168 179 191 184 157 163 174 173 171 175 174 154 167 187 174 198 222 219 184 161 154 150 182 200 247 265 300 291 280 283 287 281 270
109 152 88 89 92 91 115 108 135 126 124 144 147 157 166 170 184 194 196 188 157 167 171 177 149 156 133 139 152 160 192 198 200 195 170 132 144 164 144 260 327 314 323 338 326 305 306 317 316
164 123 132 112 121 95 93 80 85 12 137 147 157 176 179 182 195 200 190 185 172 168 156 134 119 86 65 90 183 157 158 164 183 188 189 158 157 160 143 82 350 338 341 339 319 311 319 313 316
140 82 26 200 160 138 109 22 146 148 155 159 179 186 191 197 198 208 196 185 176 165 144 155 105 153 179 171 115 24 172 162 174 195 197 179 164 163 149 155 13 335 347 351 352 349 350 350 341
78 55 115 268 160 214 91 246 225 170 157 178 186 192 200 143 357 4 52 126 134 147 142 122 137 150 228 111 60 348 191 169 161 200 83 96 146 121 82 52 18 357 6 23 20 8 357 348 329
9 186 204 248 200 132 110 263 242 180 170 184 138 73 85 70 45 42 46 65 75 96 117 102 102 179 190 35 33 15 15 23 64 49 67 65 64 47 40 23 5 1 359 11 15 344 40 328 333
240 235 204 172 193 160 105 2 49 139 92 77 95 79 79 76 55 61 60 62 67 73 75 69 52 36 29 41 42 44 50 39 43 42 38 47 40 34 29 15 0 357 359 357 5 353 336 319 317
238 70 109 141 275 98 126 97 29 58 101 106 101 99 86 84 79 59 63 65 73 75 85 80 82 51 77 63 36 17 44 36 52 53 47 43 43 41 41 29 20 11 15 351 330 324 345 350 349
79 90 30 21 1 89 97 53 24 51 84 115 119 111 111 96 80 72 66 67 77 86 100 108 118 96 82 99 100 95 129 102 99 61 51 50 50 44 45 34 18 11 355 351 349 11 351 12 24
49 95 80 155 311 67 92 37 86 47 83 93 92 116 110 116 111 92 77 67 77 87 106 109 94 90 89 104 102 80 70 50 52 60 82 59 70 58 57 47 22 346 335 323 337 71 87 179 348
73 162 124 79 73 181 103 168 292 112 93 102 118 116 118 115 109 116 103 83 86 82 77 76 100 110 110 100 96 106 126 129 147 123 81 48 50 55 43 32 11 347 346 15 95 51 18 52 337
196 314 318 109 92 58 0 89 152 152 124 131 132 129 130 138 135 131 134 144 146 133 112 110 93 85 93 87 102 115 98 77 78 58 48 29 18 9 24 23 35 31 25 26 31 9 51 40 3
339 358 35 56 76 36 285 136 195 187 163 133 115 125 150 150 126 128 150 145 157 90 77 90 95 67 61 73 71 87 94 97 82 57 32 9 342 346 17 45 36 58 56 49 31 30 29 20 335
45 53 6 21 17 214 309 52 28 218 142 132 130 141 145 131 139 156 154 176 155 141 160 92 76 89 82 85 88 91 100 102 97 92 32 7 348 355 356 20 24 34 61 61 64 45 356 332 341
346 115 144 166 162 266 7 45 320 112 112 132 138 132 123 138 149 141 106 100 115 110 86 85 95 106 96 98 90 87 118 136 141 72 62 77 82 126 4 77 109 348 1 320 314 308 314 287 291
318 57 162 105 11 62 251 35 15 140 139 112 116 122 199 122 65 96 90 91 93 98 70 66 88 98 92 101 100 104 136 138 134 125 146 168 192 229 130 198 193 184 193 245 278 280 293 303 284
98 166 49 5 96 54 333 179 184 197 175 154 143 150 132 100 100 102 97 73 52 60 81 95 121 126 136 132 152 148 165 152 160 175 184 196 206 207 222 246 236 244 253 259 262 271 276 276 279
10 25 60 104 107 158 153 272 244 183 156 147 153 142 118 119 108 73 66 52 41 30 34 88 121 144 169 179 177 162 183 192 193 201 208 213 209 205 231 284 261 249 272 283 286 279 282 310 3
152 144 106 110 213 71 137 268 262 124 133 120 142 88 88 78 87 75 63 45 27 13 16 122 164 176 221 219 218 217 212 216 219 220 221 223 237 230 226 215 255 240 293 309 304 317 66 51 6